TimeCET,TemperatureF,Dew PointF,Humidity,Sea Level PressureIn,VisibilityMPH,Wind Direction,Wind SpeedMPH,Gust SpeedMPH,PrecipitationIn,Events,Conditions,WindDirDegrees,DateUTC
1:00 AM,54,47,69,30.24,,NNW,6.9,,,,,330,2012-12-09 00:00:00
5:00 AM,53.6,44.6,72,30.24,6.2,North,6.9,-,N/A,,Partly Cloudy,350,2012-12-09 04:00:00
5:30 AM,53.6,44.6,72,30.24,6.2,NNW,8.1,-,N/A,,Partly Cloudy,340,2012-12-09 04:30:00
6:00 AM,53.6,42.8,67,30.24,6.2,NNW,9.2,-,N/A,,Partly Cloudy,340,2012-12-09 05:00:00
6:30 AM,53.6,44.6,72,30.24,6.2,NNW,8.1,-,N/A,,Partly Cloudy,330,2012-12-09 05:30:00
7:00 AM,51,40,55,30.27,31,NW,10.4,,,,Scattered Clouds,320,2012-12-09 06:00:00
7:00 AM,53.6,41.0,62,30.24,6.2,NW,10.4,-,N/A,,Partly Cloudy,320,2012-12-09 06:00:00
7:30 AM,51.8,41.0,67,30.27,6.2,NNW,9.2,-,N/A,,Scattered Clouds,330,2012-12-09 06:30:00
8:00 AM,51.8,41.0,67,30.27,6.2,NW,10.4,-,N/A,,Scattered Clouds,320,2012-12-09 07:00:00
8:30 AM,51.8,41.0,67,30.27,6.2,NW,9.2,-,N/A,,Scattered Clouds,320,2012-12-09 07:30:00
9:00 AM,51.8,41.0,67,30.27,6.2,NW,12.7,-,N/A,,Mostly Cloudy,320,2012-12-09 08:00:00
9:30 AM,53.6,41.0,62,30.27,6.2,NNW,12.7,-,N/A,,Mostly Cloudy,330,2012-12-09 08:30:00
10:00 AM,55.4,42.8,63,30.30,6.2,NNW,10.4,-,N/A,,Mostly Cloudy,330,2012-12-09 09:00:00
10:30 AM,57.2,42.8,59,30.30,6.2,NNW,9.2,-,N/A,,Mostly Cloudy,330,2012-12-09 09:30:00
11:00 AM,60.8,42.8,52,30.30,6.2,NNW,6.9,-,N/A,,Partly Cloudy,330,2012-12-09 10:00:00
11:30 AM,64.4,42.8,45,30.30,6.2,Variable,1.2,-,N/A,,Partly Cloudy,0,2012-12-09 10:30:00
12:00 PM,62.6,44.6,52,30.30,6.2,Variable,2.3,-,N/A,,Partly Cloudy,0,2012-12-09 11:00:00
12:30 PM,64.4,46.4,52,30.27,6.2,SSE,3.5,-,N/A,,Partly Cloudy,150,2012-12-09 11:30:00
1:00 PM,63,46,42,30.29,31,SE,6.9,,,,Scattered Clouds,140,2012-12-09 12:00:00
1:00 PM,64.4,48.2,56,30.27,6.2,SE,6.9,-,N/A,,Partly Cloudy,140,2012-12-09 12:00:00
1:30 PM,62.6,48.2,59,30.27,6.2,SSE,5.8,-,N/A,,Scattered Clouds,160,2012-12-09 12:30:00
2:00 PM,62.6,48.2,59,30.27,6.2,SSE,6.9,-,N/A,,Mostly Cloudy,150,2012-12-09 13:00:00
2:30 PM,62.6,48.2,59,30.24,6.2,SSE,5.8,-,N/A,,Mostly Cloudy,150,2012-12-09 13:30:00
3:00 PM,64.4,48.2,56,30.24,6.2,SE,5.8,-,N/A,,Mostly Cloudy,140,2012-12-09 14:00:00
3:30 PM,62.6,48.2,59,30.24,6.2,SE,8.1,-,N/A,,Mostly Cloudy,140,2012-12-09 14:30:00
4:00 PM,62.6,48.2,59,30.24,6.2,SE,8.1,-,N/A,,Partly Cloudy,140,2012-12-09 15:00:00
4:30 PM,62.6,48.2,59,30.24,6.2,SSE,8.1,-,N/A,,Partly Cloudy,150,2012-12-09 15:30:00
5:00 PM,62.6,48.2,59,30.24,6.2,SE,8.1,-,N/A,,Partly Cloudy,140,2012-12-09 16:00:00
5:30 PM,60.8,48.2,63,30.24,6.2,SE,6.9,-,N/A,,Partly Cloudy,140,2012-12-09 16:30:00
6:00 PM,59.0,48.2,67,30.24,6.2,ESE,5.8,-,N/A,,Partly Cloudy,120,2012-12-09 17:00:00
6:30 PM,59.0,48.2,67,30.24,6.2,ENE,5.8,-,N/A,,Partly Cloudy,60,2012-12-09 17:30:00
7:00 PM,56,46,60,30.27,31,NE,4.6,,,,Scattered Clouds,40,2012-12-09 18:00:00
7:00 PM,57.2,48.2,72,30.24,6.2,NE,3.5,-,N/A,,Partly Cloudy,40,2012-12-09 18:00:00
7:30 PM,57.2,48.2,72,30.24,6.2,NE,4.6,-,N/A,,Partly Cloudy,40,2012-12-09 18:30:00
8:00 PM,55.4,46.4,72,30.24,6.2,NNE,4.6,-,N/A,,Partly Cloudy,20,2012-12-09 19:00:00
8:30 PM,55.4,46.4,72,30.24,6.2,NNE,4.6,-,N/A,,Partly Cloudy,20,2012-12-09 19:30:00
9:00 PM,55.4,46.4,72,30.24,6.2,NNE,5.8,-,N/A,,Partly Cloudy,20,2012-12-09 20:00:00
9:30 PM,55.4,46.4,72,30.24,6.2,North,8.1,-,N/A,,Partly Cloudy,10,2012-12-09 20:30:00
10:00 PM,53.6,46.4,77,30.24,6.2,NNW,6.9,-,N/A,,Partly Cloudy,340,2012-12-09 21:00:00
10:30 PM,53.6,46.4,77,30.24,6.2,NNW,6.9,-,N/A,,Partly Cloudy,330,2012-12-09 21:30:00